sat.trackr.live / text

‹ back to catalog

STARLINK-34073

NORAD 64606 · 2025-137N

PAYLOAD ACTIVE UNKNOWN

§ Identity

Operator
Country
US
Launch date
2025-06-25
Launch site
AFETR
Launch vehicle
Mass (kg)
RCS (m²)

Purposes: comms

External: N2YO · Heavens-Above · Gunter

§ Orbital elements

Epoch: 2026-09-20T05:52:12.659808Z

Period
93.85 min
Inclination
53.1597°
Eccentricity
0.0001397
Mean motion
15.34401749 rev/d
Perigee alt
461.7 km
Apogee alt
463.7 km
Semi-major
6,840.8 km
B*
3.7074e-4
RAAN
150.7331°
Arg perigee
51.7109°
Mean anomaly
308.4019°
Rev number
7,041

§ Raw data

STARLINK-340731 64606U 25137N   26263.24459097  .00012171  00000+0  37074-3 0  99942 64606  53.1597 150.7331 0001397  51.7109 308.4019 15.34401749 70412

JSON: /api/v1/satellites/64606 · /tle

For live sub-satellite position, see the globe view (requires WebGL).

§ Visibility from observer

Set your observer location to see the next 7 days of passes ≥ 10°. The values pass through the URL so the page stays shareable.

No JS? Fill the form by hand. The geolocation button needs JavaScript.